TimeCST,TemperatureF,Dew PointF,Humidity,Sea Level PressureIn,VisibilityMPH,Wind Direction,Wind SpeedMPH,Gust SpeedMPH,PrecipitationIn,Events,Conditions,WindDirDegrees,DateUTC
12:53 AM,59.0,48.9,69,30.07,10.0,ESE,12.7,-,N/A,,Clear,120,2013-02-15 06:53:00
1:53 AM,59.0,50.0,72,30.09,10.0,ESE,9.2,-,N/A,,Clear,110,2013-02-15 07:53:00
2:53 AM,59.0,50.0,72,30.08,10.0,ESE,9.2,-,N/A,,Clear,110,2013-02-15 08:53:00
3:53 AM,55.9,51.1,84,30.09,10.0,East,5.8,-,N/A,,Clear,90,2013-02-15 09:53:00
4:53 AM,55.9,52.0,87,30.10,10.0,East,4.6,-,N/A,,Clear,90,2013-02-15 10:53:00
5:53 AM,54.0,51.1,90,30.11,10.0,ESE,3.5,-,N/A,,Clear,110,2013-02-15 11:53:00
6:53 AM,53.1,51.1,93,30.12,10.0,East,4.6,-,N/A,,Clear,90,2013-02-15 12:53:00
7:53 AM,57.9,55.9,93,30.14,10.0,NE,3.5,-,N/A,,Clear,50,2013-02-15 13:53:00
8:53 AM,63.0,54.0,72,30.17,10.0,ENE,8.1,-,N/A,,Clear,60,2013-02-15 14:53:00
9:53 AM,64.9,54.0,68,30.18,10.0,ENE,10.4,-,N/A,,Clear,70,2013-02-15 15:53:00
10:53 AM,66.9,53.1,61,30.19,10.0,ENE,12.7,-,N/A,,Clear,70,2013-02-15 16:53:00
11:53 AM,68.0,52.0,56,30.20,10.0,ENE,11.5,-,N/A,,Clear,70,2013-02-15 17:53:00
1:53 PM,69.1,48.9,49,30.15,10.0,East,13.8,-,N/A,,Clear,90,2013-02-15 19:53:00
2:53 PM,69.1,48.0,47,30.14,10.0,East,13.8,-,N/A,,Clear,90,2013-02-15 20:53:00
3:53 PM,68.0,44.1,42,30.13,10.0,East,13.8,-,N/A,,Clear,100,2013-02-15 21:53:00
4:53 PM,66.0,45.0,47,30.14,10.0,East,12.7,-,N/A,,Clear,100,2013-02-15 22:53:00
5:53 PM,62.1,46.9,58,30.15,10.0,ESE,10.4,-,N/A,,Clear,110,2013-02-15 23:53:00
6:53 PM,60.1,48.9,67,30.18,10.0,ESE,8.1,-,N/A,,Clear,110,2013-02-16 00:53:00
7:53 PM,61.0,48.0,62,30.20,10.0,East,9.2,-,N/A,,Overcast,90,2013-02-16 01:53:00
8:53 PM,61.0,48.0,62,30.22,10.0,East,6.9,-,N/A,,Overcast,90,2013-02-16 02:53:00
9:53 PM,59.0,45.0,60,30.27,10.0,NNE,13.8,-,N/A,,Clear,20,2013-02-16 03:53:00
10:53 PM,55.9,41.0,57,30.31,10.0,NNE,18.4,28.8,N/A,,Scattered Clouds,20,2013-02-16 04:53:00
11:53 PM,55.0,42.1,62,30.33,10.0,NNE,16.1,21.9,N/A,,Overcast,20,2013-02-16 05:53:00